www.pogodaiklimat.ru

Погода и климат >> Архив погоды >> Россия >> Омская область >> Черлак


ПОГОДА в Черлаке

  • Прогноз погоды в Черлаке
  • Монитор погоды в Черлаке

АРХИВ ПОГОДЫ в Черлаке

Время (UTC), дата Ветер
(напр.,м/с)
 
Видим.   Явления Облачность Т
(С)
Тd
(С)
f
(%)
Тe
(С)
Тes
(С)
Комфортность P
(гПа)
Po
(гПа)
Тmin
(С)
Tmax
(С)
R
(мм)
R24
(мм)
S
(см)
21 17.06 В 2 4000 м слаб. ливневой дождь 10/10 600 м
[Cb cap]
+11.7 +11.0 95 +10 +10 1001.0 987.3
00 18.06 СВ 3 10 км слаб. ливневой дождь 10/10 300 м
[Cb cap]
+11.3 +10.8 97 +9 +9 998.9 985.3
03 18.06 С 1 10 км слаб. ливневой дождь 10/10 300 м
[Cb cap]
+11.9 +11.4 97 +12 +12 998.6 985.0 +11.3 16
06 18.06 СЗ 2 10 км слаб. ливневой дождь 10/10 300 м
[Cb cap]
+14.8 +12.5 86 +14 +14 998.7 985.3
09 18.06 ЮЗ 3
{10}
20 км {ливн. осадки} 10/10 300 м
[Cb cap]
+13.7 +10.4 80 +13 +13 1001.5 987.9
12 18.06 ЮЗ 3
{11}
20 км {ливн. осадки} 9/9 600 м
[Cb cap]
+15.7 +8.2 61 +15 +16 1002.8 989.3
15 18.06 ЮЗ 1 20 км 4/4 600 м
[Cb cap]
+14.8 +8.5 66 +15 +15 1004.1 990.6 +17.2 4
18 18.06 З 2 10 км 3/3 600 м
[Cb cap]
+11.1 +6.6 74 +10 +10 1005.8 992.0
21 18.06 З 1 10 км 3/3 600 м
[Cb cap]
+9.7 +5.9 77 +9 +9 1006.4 992.6
00 19.06 Ю 1 20 км 1/1 600 м
[Cb cap]
+9.5 +7.0 84 +9 +10 1007.7 993.9
03 19.06 Ю 2 20 км 3/3 600 м
[Cb cap]
+15.1 +9.5 69 +15 +20 1008.3 994.7 +6.2
06 19.06 З 3 20 км 8/8 600 м
[Cb cap]
+18.9 +6.2 43 +20 +22 1008.7 995.2
09 19.06 С 1 20 км в посл. час ливневой дождь 8/8 600 м
[Cb cap]
+15.6 +9.2 66 +16 +20 1010.0 996.4
12 19.06 СЗ 1 20 км в посл. час ливневой дождь 6/6 600 м
[Cb cap]
+19.7 +10.4 55 +22 +24 комфорт 1010.4 997.0
15 19.06 штиль 0 20 км 3/3 600 м
[Cb cap]
+17.1 +10.0 63 +17 +17 1011.9 998.4 +19.8 0.3
18 19.06 штиль 0 10 км ясно +10.4 +9.6 95 +10 +10 1013.5 999.6
21 19.06 Ю 1 10 км ясно +8.9 +8.3 96 +8 +8 1014.1 1000.1
00 20.06 З 1 20 км ясно +11.8 +10.6 92 +12 +12 1014.9 1001.1
03 20.06 ЮЗ 1 20 км 4/0
[Ci fib]
+17.7 +11.0 65 +19 +27 1015.8 1002.2 +7.8
06 20.06 З 2 20 км 4/3 1000 м
[Cu hum Ci fib]
+22.2 +8.3 41 +23 +34 комфорт 1016.0 1002.6
09 20.06 З 2 20 км 8/6 600 м
[Cu hum Ac cuf Ci fib]
+22.5 +8.6 41 +24 +28 комфорт 1015.7 1002.4
12 20.06 ЮЗ 1 20 км 8/3 1000 м
[Sc diur, vesp Ac cuf Ci fib]
+22.1 +10.8 49 +24 +27 комфорт 1015.2 1001.9
15 20.06 Ю 1 20 км 6/3 600 м
[Cb cap Cc]
+20.1 +10.7 55 +23 +23 комфорт 1015.1 1001.7 +23.6
18 20.06 ЮВ 1 10 км 3/0
[Ac trans]
+14.7 +11.1 79 +15 +15 1015.7 1002.0
21 20.06 Ю 2 10 км 8/0
[Ac trans Ci fib]
+13.2 +9.5 78 +13 +13 1015.4 1001.6
00 21.06 ЮВ 1 20 км ясно +14.1 +10.0 76 +14 +15 1015.1 1001.4
03 21.06 Ю 2 20 км ясно +20.6 +11.4 56 +23 +31 комфорт 1014.4 1001.0 +12.2
06 21.06 ЮЗ 4 20 км 1/1 600 м
[Cu hum]
+24.1 +8.7 37 +25 +34 комфорт 1013.1 999.9
09 21.06 Ю 4 20 км 1/1 600 м
[Cu hum]
+25.4 +7.5 32 +25 +34 комфорт 1012.0 998.8
12 21.06 ЮЗ 4 20 км 3/0
[Ci fib]
+25.7 +7.7 32 +26 +29 жарко 1009.3 996.2
15 21.06 ЮВ 1 20 км 8/3 600 м
[Cb cap Ci fib]
+21.7 +9.5 46 +23 +23 комфорт 1008.4 995.1 +25.8
18 21.06 С 3 10 км 8/5 600 м
[Cb cap Ci fib]
+17.4 +12.1 71 +17 +17 1008.3 994.8
21 21.06 СВ 1 4000 м слаб. ливневой дождь 10/10 600 м
[Cb cap]
+15.6 +12.5 82 +16 +16 1007.8 994.3
00 22.06 штиль 0 20 км {ливн. осадки} 4/0
[Ac cuf Cc]
+14.6 +13.5 93 +14 +15 1008.6 995.0
03 22.06 Ю 2 20 км 4/1 1000 м
[Cu hum Ci fib]
+19.7 +14.0 70 +22 +29 комфорт 1008.6 995.2 +14.2 0.0
06 22.06 С 4 20 км 8/8 600 м
[Cb cap Ci fib]
+20.5 +13.0 62 +23 +25 комфорт 1009.0 995.6
09 22.06 СЗ 4
{16}
20 км {гроза, ливн. осадки} 8/8 600 м
[Cb cap]
+18.8 +11.7 63 +19 +21 1010.3 996.9
12 22.06 СЗ 4
{11}
20 км {гроза, ливн. осадки} 6/6 600 м
[Cb cap]
+17.8 +5.4 44 +18 +19 1011.3 997.8
15 22.06 СЗ 2
{10}
20 км 4/3 600 м
[Cb cap Ac lent]
+13.6 +3.4 50 +13 +13 1013.0 999.2 +21.3 7
18 22.06 СЗ 1 10 км 3/3 600 м
[Cb cap]
+9.1 +4.2 71 +9 +9 1014.5 1000.5
21 22.06 СЗ 2 4000 м слаб. ливневой дождь 9/9 600 м
[Cb cap]
+8.0 +6.3 89 +6 +6 1013.6 999.6
00 23.06 СЗ 3 10 км слаб. ливневой дождь 10/10 300 м
[Cb cap]
+8.4 +7.5 94 +6 +6 1013.7 999.7
03 23.06 СЗ 3 10 км слаб. ливневой дождь 10/10 300 м
[Cb cap]
+11.1 +9.2 88 +9 +9 1013.8 1000.0 +7.8 0.9
06 23.06 СЗ 3 20 км в посл. час ливневой дождь 10/10 300 м
[Cb cap]
+13.0 +9.8 81 +12 +12 1014.4 1000.6
09 23.06 СЗ 2 20 км {ливн. осадки} 10/10 600 м
[Cb cap]
+14.9 +10.6 75 +15 +15 1014.3 1000.6
12 23.06 В 3 20 км {ливн. осадки} 8/8 600 м
[Cb cap]
+16.2 +12.2 77 +16 +17 1013.6 1000.0
15 23.06 ЮВ 1 20 км 3/3 600 м
[Cb cap]
+15.2 +11.3 78 +16 +16 1013.5 999.9 +18.4 0.3
18 23.06 ЮВ 2 10 км ясно +12.3 +10.4 88 +11 +11 1013.2 999.4
21 23.06 Ю 1 10 км 3/0
[Ac trans]
+9.8 +8.9 94 +9 +9 1012.3 998.4
00 24.06 ЮВ 1 20 км 8/3 600 м
[Cb cap Ac trans]
+11.3 +10.4 94 +11 +11 1011.9 998.0
03 24.06 ЮВ 2 20 км 9/9 1000 м
[Sc]
+16.7 +12.1 74 +17 +18 1011.4 997.8 +9.1
06 24.06 Ю 2 20 км 8/6 1000 м
[Cu hum Ci fib]
+20.4 +12.0 59 +23 +29 комфорт 1010.7 997.3
09 24.06 Ю 2 20 км 10/8 600 м
[Cb cap Ac trans Ci fib]
+22.4 +13.4 57 +25 +27 комфорт 1010.5 997.2
12 24.06 В 2 20 км 8/5 1000 м
[Sc diur, vesp Ac trans]
+22.4 +13.4 57 +25 +27 комфорт 1010.9 997.6
15 24.06 В 1 20 км 8/3 1000 м
[Sc diur, vesp Ac trans Ci fib]
+21.5 +14.5 64 +24 +24 комфорт 1011.5 998.2 +23.5

 

Местоположение метеостанции Черлак (Омская область, Россия): широта 54.17 долгота 74.80 высота над уровнем моря 115 м.

В архиве по умолчанию представлена погода в Черлаке за последнюю неделю. Архивные данные за месяц целиком и за предыдущие месяцы, начиная с января 2011 года, Вы можете получить, выбрав интересующий диапазон дат из раскрывающегося списка и нажав кнопку "Ввод!".


*Определитесь, кто Вы:
робот инопланетянин человек

Внимание! Время в таблицах - всемирное. Для получения местного времени необходимо прибавить поправку, которая равна 6 ч.

Смотрите также архив погоды в соседних городах и на ближайших метеорологических станциях:

Погода в Любимовке (Омская область, Россия) (59 км)
Погода в Русской Поляне (Омская область, Россия) (74 км)
Погода в Павлоградке (Омская область, Россия) (80 км)
Погода в Калачинске (Омская область, Россия) (97 км)
Погода в Иртышске (Павлодарская область, Казахстан) (101 км)
Погода в Одесском (Омская область, Россия) (119 км)
Погода в Михайловке (Акмолинская область, Казахстан) (120 км)
Погода в Голубовке (Павлодарская область, Казахстан) (120 км)
Погода в Чистоозерном (Новосибирская область, Россия) (129 км)
Погода в Омске (Омская область, Россия) (132 км)

Пояснения к столбцам:

Ветер - указаны скорость ветра в м/с - средняя за 10 мин, порывы в срок и между сроками (в фигурных скобках) и направление, откуда дует ветер: С - северный, СВ - северо-восточный, В - восточный, ЮВ - юго-восточный, Ю - южный, ЮЗ - юго-западный, З - западный, СЗ - северо-западный.
Видимость - горизонтальная дальность видимости в метрах или километрах. При видимости от 1 до 10 км при отсутствии осадков обычно наблюдается дымка, при ухудшении видимости до 1 км и менее - туман. В сухую погоду видимость может ухудшаться дымом, пылью или мглою.
Явления - указаны атмосферные явления, наблюдавшиеся в срок или в последний час перед сроком; фигурными скобками обозначены явления, наблюдавшиеся между сроками (за 1-3 часа до срока); квадратными скобками обозначены град или гололедные отложения с указанием их диаметра в мм.
Облачность - указаны через наклонную черту общая и нижняя облачность в баллах и высота нижней границы облаков в метрах; квадратными скобками обозначены формы облаков: Ci - перистые, Cs - перисто-слоистые, Cc - перисто-кучевые, Ac - высококучевые, As - высокослоистые, Sc - слоисто-кучевые, Ns - слоисто-дождевые, Cu - кучевые, Cb - кучево-дождевые. Подробнее классификацию облаков см. в Атласе облаков (PDF).
T - Температура воздуха - температура, измеренная на высоте 2 м над землей.
Td - Температура точки росы - температура, при понижении до которой содержащийся в воздухе водяной пар достигнет насыщения.
f - Относительная влажность воздуха - влажноcть воздуха, измеренная на высоте 2 м над землей.
Te - Эффективная температура - температура, которую ощущает одетый по сезону человек в тени. Характеристика душности погоды. При расчете учитывается влияние влажности воздуха и скорости ветра на теплоощущения человека.
Tes - Эффективная температура на солнце - температура, которую ощущает человек, с поправкой на солнечный нагрев. Характеристика знойности погоды. Зависит от высоты солнца над горизонтом, облачности и скорости ветра. Ночью, в пасмурную погоду, а также при ветре 12 м/с и более поправка равна нулю.
P - Атмосферное давление - приведенное к уровню моря атмосферное давление.
Po - Атмосферное давление - измеренное на уровне метеостанции атмосферное давление.
Tmin - Минимальная температура - минимум температуры воздуха на высоте 2 м над землей.
Tmax - Максимальная температура - максимум температуры воздуха на высоте 2 м над землей.
R - Количество осадков - Количество выпавших осадков за период времени, мм. При наведении курсора мыши на число - период времени, за который выпало указанное количество осадков.
R24 - Количество осадков - Количество выпавших осадков за 24 часа, мм.
S - Снежный покров - Высота снежного покрова, см. При наведении курсора мыши на число - состояние снежного покрова и степень покрытия местности в баллах.